Location: Camp Roosevelt
(41.7914°N, 81.1673°W)
Time: 17:53:52
(UTC+00:00)

Cosmos 1745 Rocket - Pass Details

Date: 29 October 2020
Orbit: 953 x 997 km, 83.0° (Epoch: 27 November)

Event Time Altitude Azimuth Distance (km) Brightness Sun altitude
Rises 23:22:17 0° 357° (N) 3,696 7.0 -11.7°
Reaches altitude 10° 23:24:53 10° 2° (N) 2,750 6.3 -12.2°
Maximum altitude 23:31:01 51° 78° (ENE) 1,228 4.2 -13.4°
Drops below altitude 10° 23:37:09 10° 154° (SSE) 2,754 6.2 -14.5°
Sets 23:39:45 0° 159° (SSE) 3,701 6.9 -15.0°
